Theta_e
292 292 292 292 292 293 293 293 293 294 294 295 295 296 296 297 297 297 298 300 301 303 304 304 306 306 308 308 305 306 307 308 309 309 310 308 309 309 311 311 311 311 310 310 310 308 309 306 306 304 303 303 302 302 300 297 296 296 294 292 291 289 288 286 287 288 287 287 286 285 286 285 288 289 287 288 289 289 288 290 290 290 288 288 289
291 291 291 291 292 292 292 292 293 292 292 293 294 294 295 296 296 297 298 298 298 299 301 301 301 301 304 303 303 303 306 307 307 308 308 308 307 307 307 307 307 307 305 306 306 306 304 304 304 305 303 302 302 301 299 297 295 293 292 290 289 291 289 287 289 289 286 285 284 284 284 286 287 287 287 288 288 288 289 290 290 290 289 288 288
289 290 290 290 291 291 292 292 292 292 292 292 293 293 294 294 295 295 296 297 297 297 298 299 299 300 301 300 301 302 302 303 304 304 305 306 305 305 306 306 307 306 305 305 306 305 305 304 303 303 302 301 300 299 298 296 294 293 291 293 289 287 287 287 288 290 286 283 282 283 282 283 285 286 287 288 288 288 288 289 290 289 290 289 288
287 288 288 289 289 290 290 291 291 291 291 291 291 292 293 293 293 294 295 295 296 297 297 297 298 298 298 298 299 299 297 298 299 300 302 304 304 303 304 304 305 306 305 305 305 305 304 304 301 301 301 300 301 301 298 298 294 293 292 292 291 289 287 288 289 289 285 286 283 285 280 281 280 283 285 285 287 288 288 289 288 290 289 288 287
287 287 287 288 288 288 288 289 290 290 290 290 290 291 292 291 292 293 293 294 294 295 296 297 298 298 298 299 298 298 298 297 297 297 297 297 299 300 299 298 300 301 300 300 300 301 301 301 300 299 300 299 299 299 299 298 297 296 294 293 292 293 290 286 287 289 287 288 286 280 281 282 280 279 280 282 282 285 287 288 288 289 288 288 288
286 286 286 286 287 287 288 288 288 289 289 290 290 291 291 291 291 292 292 293 293 293 294 296 295 295 295 295 294 294 294 294 293 293 294 296 297 296 298 297 298 299 297 297 297 297 298 297 297 297 297 298 298 299 299 298 296 295 294 294 292 292 294 289 287 287 289 288 286 284 283 281 281 279 283 281 280 284 284 285 287 288 287 287 287
286 286 286 285 286 286 286 287 287 287 288 289 289 290 290 291 291 291 291 291 292 292 293 294 293 293 293 293 293 292 291 292 292 293 293 294 294 294 296 297 296 298 297 296 296 296 295 294 294 294 294 296 297 297 297 297 297 296 295 293 293 293 291 291 289 289 287 288 288 287 285 284 281 283 282 282 281 281 282 283 285 285 286 286 287
284 284 284 285 285 285 285 286 286 287 287 288 288 289 288 289 289 290 290 290 290 291 291 292 292 292 291 291 291 291 291 290 292 292 293 293 293 293 293 293 294 295 296 296 295 296 295 296 293 292 293 292 293 295 296 297 297 296 295 294 294 293 292 291 291 289 288 288 289 289 288 285 283 284 281 283 282 281 281 282 282 284 284 285 287
283 283 283 284 284 284 285 285 286 287 287 287 287 287 288 288 288 288 288 289 289 290 290 290 291 290 290 290 290 290 290 290 291 292 291 292 291 292 292 292 292 293 293 293 293 293 294 294 293 293 292 292 290 291 293 294 294 294 294 293 293 293 292 292 291 291 289 289 287 286 287 287 286 285 283 282 283 281 283 281 282 282 283 284 286
283 283 283 284 284 284 284 284 285 286 286 287 286 287 287 287 287 287 287 288 288 288 289 289 289 290 289 289 288 288 289 289 290 289 290 290 290 290 290 290 290 291 291 291 291 291 292 293 293 293 292 291 290 289 288 290 291 292 293 294 294 293 293 292 291 291 291 290 290 290 287 284 284 285 283 284 284 283 285 283 280 282 282 284 286
282 282 282 283 283 284 284 284 284 285 285 286 286 286 286 286 286 286 286 287 287 287 287 287 288 288 288 288 287 287 287 288 287 287 288 288 288 288 288 289 289 289 290 290 290 290 290 291 291 292 291 291 291 290 290 290 290 289 290 290 291 292 292 292 291 291 291 289 289 289 288 287 287 285 284 284 285 284 282 283 282 281 283 284 282
281 281 282 282 283 283 283 283 284 284 284 285 285 285 285 285 285 285 285 286 286 286 286 286 287 287 287 286 286 286 286 286 286 285 286 286 286 286 287 287 287 288 288 288 288 289 289 289 290 291 291 292 292 291 291 290 290 288 288 287 288 288 289 290 291 290 290 290 289 289 289 289 287 286 286 286 285 285 285 285 284 281 282 282 283
282 281 281 281 281 281 282 282 283 283 283 283 284 284 284 284 284 284 284 285 285 285 285 285 285 286 286 286 286 286 286 286 286 285 285 285 285 285 285 285 286 286 286 286 287 287 287 288 288 289 289 290 290 290 291 290 290 290 289 288 287 286 287 287 287 288 289 289 289 289 288 288 288 288 287 286 286 286 285 285 284 281 285 281 281
281 281 281 280 280 281 281 281 282 282 282 283 283 283 283 283 283 283 283 284 285 285 284 284 284 285 286 287 286 286 285 286 286 285 285 285 285 284 284 284 284 284 285 285 286 286 287 287 287 287 288 288 288 289 289 289 289 289 289 289 288 288 286 286 286 286 286 286 286 285 285 286 286 286 286 286 285 285 284 284 285 283 281 283 281
280 280 280 280 280 280 280 281 281 281 282 282 282 282 282 282 283 283 283 284 284 284 284 284 285 285 286 286 287 286 285 285 285 286 285 285 285 284 284 284 284 284 284 284 285 285 285 286 286 286 286 286 287 287 288 288 288 288 288 288 287 287 286 285 285 285 286 286 285 285 285 284 284 284 285 285 286 286 286 285 284 284 284 283 282
280 279 279 279 279 279 280 280 281 281 281 282 282 282 283 282 282 282 282 283 284 284 285 285 285 285 285 285 286 286 286 286 286 286 286 286 285 285 284 284 284 284 285 285 284 284 285 285 285 285 286 286 285 286 286 286 286 286 286 287 287 288 287 286 286 285 284 284 284 285 284 284 284 284 284 285 285 285 285 286 284 284 282 282 283
279 279 278 278 279 279 279 279 280 281 281 282 282 281 282 282 282 282 282 282 284 284 285 286 285 285 285 285 285 285 285 285 285 285 285 286 286 285 285 285 285 286 285 286 285 285 285 285 285 285 285 286 285 285 285 285 285 285 285 285 286 286 286 286 286 285 285 284 284 284 284 285 284 284 283 283 283 283 284 284 285 285 285 282 282
280 279 279 280 281 281 281 281 280 280 281 282 283 283 282 282 282 282 282 283 283 285 285 285 285 285 284 284 284 285 284 285 285 284 285 284 285 285 285 284 285 285 285 286 285 284 285 285 284 284 284 285 285 285 284 284 285 285 285 285 285 284 285 286 286 285 285 285 284 284 284 284 284 283 283 283 283 283 282 283 283 284 284 284 283
281 281 280 280 280 281 281 281 282 283 283 284 285 285 285 285 285 285 284 285 284 285 285 285 285 285 285 284 284 284 284 284 283 283 283 284 283 284 284 284 284 284 284 284 284 283 284 284 284 284 284 284 284 284 284 284 284 284 285 285 285 286 285 285 286 286 286 285 285 284 284 284 284 284 283 283 283 283 283 282 282 282 282 283 283
281 281 282 282 281 281 281 281 282 283 284 285 285 285 285 285 284 285 285 285 284 284 284 284 285 284 284 284 283 282 281 281 281 281 282 281 282 282 282 282 282 282 282 282 283 283 283 283 283 283 283 284 284 284 284 284 284 284 284 284 285 285 285 285 286 286 286 286 285 284 285 285 285 284 283 283 283 282 283 282 282 282 282 282 282
282 283 283 283 283 284 285 285 284 284 283 283 283 284 284 283 283 283 283 283 283 283 283 283 283 283 282 282 282 281 281 280 280 280 280 280 280 280 280 280 281 282 282 282 281 282 282 282 282 283 283 283 283 283 283 283 283 283 283 283 284 284 284 285 285 285 286 286 285 285 285 285 285 284 284 284 283 283 282 282 282 282 282 282 281
284 284 283 284 284 283 283 283 282 283 282 282 282 282 283 284 283 282 283 282 283 282 283 283 282 282 281 281 281 281 281 280 280 280 280 281 281 281 281 281 281 282 281 282 281 281 281 280 281 282 282 282 282 282 282 283 282 282 282 284 284 283 283 283 284 284 285 286 286 285 285 285 286 285 285 284 284 284 283 282 282 281 282 282 282
285 284 284 284 284 283 282 282 282 282 282 282 282 283 282 282 282 281 282 282 282 282 282 282 281 281 281 280 280 280 280 280 280 280 279 280 280 280 281 281 281 282 281 281 281 281 281 281 280 281 281 281 282 282 282 282 282 282 282 282 283 283 282 282 282 283 284 285 285 285 285 286 286 285 285 285 285 284 284 283 283 282 282 282 282
284 284 284 284 283 283 283 283 283 282 282 281 281 281 281 281 281 282 281 281 281 281 282 281 281 281 280 280 280 280 280 280 280 279 279 279 279 280 280 280 281 280 281 281 281 281 280 280 280 280 281 281 281 281 281 281 281 281 281 281 282 282 282 282 282 282 283 283 283 284 284 285 285 285 285 285 285 285 285 284 284 284 283 283 283
281 281 281 281 281 280 281 281 281 281 281 281 281 281 280 281 281 281 281 281 281 281 281 281 281 280 279 278 278 278 278 278 278 278 278 278 278 279 279 279 279 279 279 280 280 280 280 280 280 280 280 281 281 281 280 281 281 281 281 281 281 281 282 282 282 282 283 283 283 283 284 284 284 284 284 284 285 284 285 285 284 285 284 284 284
280 279 279 279 280 279 279 279 279 280 279 280 280 280 279 279 279 279 279 279 279 279 279 279 278 278 278 277 277 277 277 277 278 278 278 278 278 278 278 279 278 278 279 279 279 279 280 279 280 280 280 280 280 280 280 280 280 281 281 281 281 281 281 281 281 282 282 283 283 283 283 283 283 283 283 283 284 284 284 284 284 285 285 285 284
279 279 278 278 279 278 279 278 278 279 278 278 278 278 278 278 277 277 277 277 277 277 277 277 277 276 277 276 276 277 277 277 277 278 278 278 278 278 278 278 278 278 278 278 279 279 279 279 279 279 279 280 280 280 280 280 280 280 280 280 280 280 280 280 281 281 281 282 282 283 283 283 283 283 283 283 283 283 284 284 284 284 285 284 284
278 278 278 278 279 278 278 278 278 277 276 277 277 277 277 277 277 277 277 277 278 277 276 276 276 276 276 276 276 277 277 277 277 277 277 277 277 277 277 277 277 277 277 277 277 278 278 278 279 279 279 279 279 279 279 280 280 280 280 279 279 279 279 279 280 280 281 281 281 282 282 282 283 283 283 283 283 283 283 283 284 284 284 283 283
277 278 278 278 278 279 278 278 277 276 277 278 278 277 277 276 276 276 276 276 276 275 275 275 275 275 275 276 276 276 276 276 276 276 276 276 276 276 276 275 275 275 276 276 276 276 276 276 277 277 278 278 278 278 279 279 279 279 280 280 280 280 280 279 279 280 280 281 281 281 281 282 282 284 285 285 285 285 283 282 283 283 282 282 282
278 278 278 278 278 277 276 276 277 277 277 277 277 277 276 276 276 275 275 275 274 274 274 274 274 274 274 274 274 274 274 274 274 274 273 273 272 272 272 272 272 273 273 274 274 274 275 274 275 275 276 276 277 277 279 281 281 280 279 280 280 280 280 279 279 280 280 281 281 281 281 283 284 284 284 285 286 287 287 286 284 283 282 282 282
278 278 277 277 276 276 277 277 277 277 277 277 277 276 275 274 274 274 274 274 273 273 273 272 272 273 273 273 273 273 273 272 272 271 270 270 270 270 270 270 270 270 271 271 272 272 272 273 273 273 273 274 274 275 278 280 281 282 280 278 278 278 279 279 279 278 278 279 280 281 281 282 282 283 283 285 286 287 287 287 288 288 286 284 282
277 277 276 277 277 277 277 277 277 277 276 276 275 274 274 273 273 273 273 272 272 272 271 271 271 272 272 272 272 272 271 270 270 269 269 268 268 268 268 268 268 268 269 269 269 269 270 270 270 270 270 270 271 274 276 277 278 279 279 277 277 277 278 278 278 278 278 278 279 279 280 281 281 281 281 281 282 285 286 287 287 287 288 289 288
276 276 276 277 277 277 277 277 276 276 274 274 274 273 272 272 272 272 272 271 270 270 270 270 271 271 271 271 270 269 268 268 267 267 267 266 266 266 266 266 266 266 267 266 267 266 266 267 267 267 267 268 268 271 274 275 276 277 278 277 276 276 276 276 276 277 277 277 278 278 278 279 280 282 282 281 281 281 283 285 286 286 287 288 289
276 277 277 277 277 277 277 276 275 274 273 272 272 272 272 272 271 270 270 270 269 269 269 269 269 269 269 269 268 266 266 265 265 265 265 264 264 264 264 264 265 265 264 264 264 264 264 264 265 265 265 265 265 268 273 274 275 276 276 276 274 274 275 275 276 276 276 276 276 277 277 277 279 279 280 280 280 280 280 280 280 281 282 283 286
276 276 276 277 277 277 275 273 272 272 272 271 271 270 270 270 270 269 269 268 268 267 267 268 267 267 266 265 265 264 264 264 263 263 263 262 262 262 263 263 263 263 263 262 262 262 263 263 263 263 263 263 264 270 272 273 273 274 274 274 271 271 271 272 273 274 275 276 276 276 276 276 277 277 278 279 279 279 279 279 279 279 280 281 281
276 277 277 277 276 276 274 272 272 271 270 270 269 269 268 268 268 268 267 265 266 265 265 266 265 264 264 265 264 263 262 262 262 262 261 261 261 261 261 262 262 262 262 262 262 262 261 261 262 262 262 262 263 269 270 271 272 273 274 270 269 269 269 269 270 271 272 273 274 275 275 276 276 276 279 281 281 279 279 278 278 279 279 280 280
277 278 278 276 275 274 272 271 270 270 269 269 269 267 267 266 266 266 265 264 264 263 264 264 263 263 263 263 263 262 261 261 261 260 260 260 260 260 260 261 260 260 261 260 260 261 261 261 261 261 261 261 261 265 269 270 271 272 271 268 268 268 268 268 269 270 270 271 272 273 273 274 274 275 278 281 282 282 279 279 280 280 280 280 280
276 275 274 273 273 272 271 270 269 268 268 268 267 265 265 264 264 264 263 264 262 263 264 262 262 262 262 262 262 261 260 260 259 259 259 260 260 260 260 260 260 259 259 259 260 260 260 260 260 260 260 260 261 264 268 269 270 271 271 268 267 267 267 267 268 269 270 271 272 274 274 273 273 274 277 279 280 278 276 276 276 276 276 278 279
276 275 273 272 271 271 270 269 268 266 266 266 264 263 263 263 263 263 263 261 262 263 262 262 262 262 262 261 261 260 260 259 259 259 259 259 259 259 259 260 259 259 259 259 259 259 259 259 259 260 262 261 260 262 267 268 270 271 269 268 267 267 266 266 267 267 269 269 270 272 274 274 274 275 278 279 280 279 276 277 277 277 276 276 278
273 273 273 271 270 269 268 266 265 266 265 264 263 262 261 262 262 263 261 260 262 262 262 262 262 262 261 260 260 259 259 258 258 258 258 258 259 259 259 259 258 258 258 258 258 258 258 258 259 259 259 260 260 260 263 268 269 270 271 268 267 266 266 266 267 267 267 268 268 269 271 274 275 276 277 278 278 278 275 275 275 275 275 275 279
272 272 273 270 270 269 267 265 265 265 264 263 262 261 261 261 261 261 260 261 261 261 261 261 261 260 259 259 259 258 258 258 258 258 258 258 258 258 258 258 257 257 257 257 257 257 257 258 259 259 259 260 260 260 262 268 269 270 271 270 267 267 267 266 266 266 267 267 268 269 270 273 275 276 276 277 278 278 278 276 275 274 274 276 279
272 272 270 268 267 266 265 264 264 264 263 262 260 259 260 260 260 259 259 261 261 261 260 259 259 259 258 258 257 257 258 257 258 257 257 257 258 258 257 257 257 257 256 256 256 257 257 257 258 259 259 259 261 263 262 266 269 270 271 272 268 267 268 267 267 267 267 267 267 267 267 270 273 274 275 275 276 277 277 275 275 279 280 280 277
269 268 268 267 265 264 264 263 263 262 262 262 258 257 258 259 258 259 260 259 260 259 259 258 258 257 257 257 257 256 257 257 257 257 257 256 257 257 256 257 256 256 256 255 256 256 257 257 257 258 259 259 260 261 265 264 268 270 271 272 272 270 272 269 268 266 267 267 268 268 268 272 273 274 274 275 276 276 276 274 277 278 279 279 279
268 267 267 264 264 264 263 262 262 261 260 261 257 256 257 257 258 260 259 259 258 257 257 256 256 256 256 256 256 256 256 256 256 256 256 256 256 256 256 256 256 256 255 255 256 256 256 256 256 257 258 259 260 260 263 267 266 270 271 272 272 273 273 270 269 268 268 268 268 267 268 272 274 274 275 276 276 276 274 277 277 278 278 278 276
266 265 264 263 263 262 262 261 261 259 259 257 257 256 256 255 258 258 257 256 256 254 255 255 254 254 255 255 255 255 255 255 255 255 255 256 256 255 255 256 256 255 255 255 255 255 255 255 256 256 257 258 259 260 261 263 268 269 271 271 272 272 273 273 269 269 269 269 271 274 275 275 275 275 276 276 274 274 275 275 276 276 276 274 274
264 263 263 262 260 259 258 258 259 258 258 258 257 256 254 256 258 257 256 255 254 253 254 254 254 255 255 255 255 255 255 255 255 256 255 256 255 255 255 255 255 255 255 255 255 255 255 255 256 257 257 258 260 261 261 261 264 266 267 269 271 272 272 273 272 270 273 274 274 274 275 275 274 273 270 269 269 270 274 275 276 276 274 273 273
263 263 261 259 258 258 257 257 256 258 257 257 256 255 256 257 256 257 257 254 252 253 254 254 254 254 254 254 254 255 255 256 255 255 256 256 256 255 255 255 255 255 255 255 255 255 256 257 258 258 259 261 261 262 263 263 263 263 263 265 266 266 269 271 268 266 268 267 268 269 269 272 272 274 274 274 274 274 272 272 272 272 272 272 272
263 262 260 258 257 258 256 256 256 258 257 256 255 254 255 255 255 256 253 252 253 253 254 254 254 254 254 254 254 256 256 255 255 255 255 255 256 255 255 255 255 256 255 256 256 257 258 258 259 260 262 263 263 264 264 264 265 265 266 266 266 265 264 264 265 265 266 266 266 269 270 269 269 268 268 268 268 269 270 271 270 271 271 272 274
261 259 258 259 257 256 256 255 256 257 256 255 253 254 253 255 256 254 253 251 253 254 254 253 253 254 254 255 255 255 255 255 255 255 255 256 255 256 256 257 259 259 258 258 258 259 260 262 263 263 263 263 263 264 265 269 269 273 270 269 268 268 268 267 269 272 269 268 267 266 266 266 266 267 268 268 268 269 269 270 270 270 271 271 272
260 259 257 256 255 255 254 254 255 256 254 253 253 253 253 256 254 253 252 251 253 253 252 252 253 253 254 254 254 254 254 255 254 255 255 255 259 263 263 261 261 264 268 269 269 265 266 266 266 266 266 265 264 266 272 273 273 274 274 275 274 275 275 273 274 275 273 270 269 269 268 268 268 268 268 268 269 269 269 269 269 272 271 271 272
258 257 255 255 255 255 254 253 255 255 253 253 253 253 253 254 255 254 253 252 251 252 253 253 253 253 254 255 254 254 255 255 255 255 255 255 255 257 263 266 266 266 267 269 269 270 271 271 268 266 267 271 272 272 273 273 273 273 274 274 274 275 275 275 275 272 270 269 269 268 268 269 269 268 268 268 268 268 268 268 268 269 270 270 271
Wind_Speed
5 6 8 9 10 10 9 10 10 12 14 14 14 14 13 11 12 13 9 10 10 9 8 7 6 5 6 6 4 5 5 5 7 6 6 5 5 5 5 3 2 2 2 3 5 5 4 3 3 3 4 6 6 8 9 10 8 8 7 4 7 5 4 3 4 4 4 1 2 3 5 3 3 2 4 5 6 7 5 7 6 5 5 5 6
6 9 10 10 11 11 10 10 12 16 14 14 14 12 12 13 13 11 11 11 10 8 6 7 5 2 4 3 4 5 6 6 6 6 6 6 6 5 5 4 4 4 4 4 2 1 1 2 3 4 5 5 5 3 3 3 4 4 4 4 3 7 6 6 5 7 1 5 3 3 4 6 5 4 5 7 6 5 5 6 5 6 7 6 4
7 8 8 9 9 9 9 10 11 11 12 13 12 14 14 13 11 10 11 10 10 10 8 6 5 6 5 4 4 4 4 4 5 4 5 6 6 6 6 6 6 6 5 5 3 2 1 0 1 1 1 1 2 3 3 4 5 6 6 7 5 1 3 2 6 8 6 2 2 1 4 2 4 5 6 7 5 5 5 6 6 6 8 6 6
9 9 9 9 8 10 12 12 11 11 12 13 13 12 11 12 11 12 11 11 11 10 9 7 5 4 6 6 7 7 3 4 5 7 7 7 7 6 7 6 6 6 6 6 5 5 3 2 2 0 1 1 2 3 3 5 4 3 4 6 4 4 3 5 6 8 5 7 3 7 3 1 7 7 9 6 7 9 8 8 5 7 6 5 4
8 9 10 10 13 13 12 10 10 13 12 12 11 11 9 11 11 11 11 11 10 12 11 9 11 11 9 9 9 9 9 11 9 9 9 5 5 7 5 4 5 6 6 6 6 5 5 4 3 1 0 0 1 2 3 5 5 5 6 6 6 7 7 4 4 6 7 6 6 2 1 2 6 5 2 6 1 5 9 8 7 7 7 7 6
7 8 9 9 9 9 11 12 13 12 12 10 9 10 11 11 12 12 11 12 12 12 11 10 10 10 11 11 10 8 9 10 10 8 9 8 8 6 6 6 6 5 5 5 5 5 5 5 4 3 2 1 1 3 3 2 3 4 5 6 7 7 7 6 5 4 8 8 5 4 3 4 1 2 1 7 2 5 4 4 7 6 4 6 7
7 8 8 10 10 11 12 12 11 12 10 8 9 11 12 12 11 12 11 11 11 11 13 10 11 10 10 9 8 8 7 6 5 7 8 8 7 10 9 10 9 8 6 6 5 5 5 4 4 3 3 2 2 2 4 4 4 4 3 4 6 6 4 6 7 6 2 6 7 8 4 2 2 0 4 2 7 1 3 5 6 5 5 5 7
5 7 8 7 8 10 10 8 9 9 7 8 10 10 12 12 12 12 11 11 11 11 13 11 10 10 10 9 9 9 7 6 8 7 8 9 11 11 10 10 11 10 10 10 10 8 7 6 4 4 4 3 2 2 3 4 3 3 2 4 4 3 4 7 7 6 7 5 7 11 9 5 3 2 3 2 3 6 6 1 3 5 4 7 8
5 6 7 7 8 9 7 8 7 8 9 10 9 9 9 10 10 11 13 12 11 12 12 12 11 10 10 9 10 7 7 7 5 8 9 9 12 11 11 10 10 11 11 11 11 11 10 8 6 5 5 4 2 3 3 4 4 4 4 3 4 5 5 6 6 6 6 7 4 6 6 10 7 6 2 2 4 5 9 5 5 1 3 7 8
4 5 5 6 6 7 5 4 9 9 7 7 7 8 8 9 12 14 14 11 10 12 12 13 12 10 12 11 11 10 9 8 9 10 9 8 10 10 9 10 9 10 10 10 11 11 10 10 8 7 5 4 4 3 4 4 4 4 4 4 4 5 4 5 7 6 6 6 7 5 5 4 5 6 5 5 5 6 13 9 4 6 7 7 9
4 4 5 4 5 5 4 8 6 7 7 8 9 9 9 10 11 14 11 10 11 12 12 12 11 11 11 11 11 11 10 10 11 11 10 11 10 9 9 8 8 8 9 9 10 10 10 9 9 8 7 6 6 5 4 4 5 4 5 4 4 5 5 5 6 6 6 6 6 6 8 7 9 7 7 7 8 8 6 8 6 7 9 9 5
3 4 4 4 6 7 5 8 8 8 10 11 9 9 10 9 10 13 13 12 11 10 12 12 11 11 10 10 11 10 10 9 10 10 9 9 9 9 8 8 9 8 8 9 10 10 9 9 9 10 9 9 9 7 7 5 5 4 4 5 5 4 4 5 5 6 6 6 7 6 7 6 7 7 6 7 7 8 7 12 8 3 5 7 6
3 4 3 4 6 6 8 6 8 11 10 9 9 8 8 9 11 13 12 10 10 10 11 11 11 10 10 10 9 9 10 9 9 10 8 9 8 9 10 9 9 10 10 9 9 8 7 9 9 8 8 8 8 8 8 8 7 6 5 5 4 5 6 5 5 6 7 7 7 7 6 6 8 6 6 7 6 6 7 10 6 3 11 6 4
2 3 3 4 4 4 4 6 7 7 8 8 8 8 8 9 9 12 10 9 9 10 10 11 11 10 9 9 9 8 8 8 8 9 8 7 7 7 7 7 7 7 8 8 8 7 7 6 6 7 7 8 8 8 8 7 7 7 6 7 6 6 4 5 6 6 6 7 6 7 7 7 7 6 7 6 7 6 8 8 9 6 5 8 3
1 3 4 4 4 4 4 5 6 6 6 7 6 7 6 8 8 9 9 9 9 9 9 11 10 10 9 8 7 6 6 7 7 7 8 8 7 7 6 5 6 6 6 6 7 8 8 8 8 7 7 7 7 7 7 7 7 7 6 6 7 6 6 5 6 6 7 7 6 7 7 7 7 6 6 7 6 8 8 8 6 12 11 8 7
2 3 4 4 4 4 4 5 5 5 5 5 6 5 7 6 6 7 7 6 7 7 7 7 7 6 7 8 8 7 7 7 7 7 7 6 6 6 6 5 5 5 5 6 6 5 7 8 8 8 7 7 6 6 6 6 6 7 7 6 7 6 6 8 7 6 7 8 7 7 6 7 7 7 6 7 7 7 7 7 6 8 10 15 9
3 3 3 4 3 3 4 4 4 4 4 5 5 4 5 5 6 7 6 5 6 6 5 5 5 6 6 6 6 7 7 7 6 6 6 6 5 5 5 5 5 5 6 6 7 7 7 7 6 7 8 7 7 6 6 6 6 6 6 6 6 6 5 7 7 7 7 7 7 7 7 7 7 5 5 6 7 6 6 7 7 9 8 11 12
2 2 2 2 2 3 3 3 4 4 4 4 4 3 3 3 4 5 5 6 5 4 5 4 5 5 5 6 6 5 5 5 5 4 4 4 4 3 3 4 5 5 4 5 5 7 7 8 7 8 7 7 6 6 6 5 5 6 6 5 4 4 4 5 6 5 7 6 7 7 6 7 6 6 6 6 6 7 7 6 7 7 7 12 11
3 3 3 3 3 3 3 4 4 4 3 3 3 3 5 5 5 5 6 4 4 4 4 3 4 4 3 4 4 5 4 4 3 4 4 5 6 6 5 5 5 5 5 6 6 6 6 6 6 7 7 8 7 7 7 6 5 6 5 6 6 5 5 6 6 5 6 6 7 8 7 7 7 7 7 6 6 6 7 7 7 6 8 9 11
4 3 3 3 3 3 3 4 4 4 4 4 4 4 6 5 5 6 6 6 6 7 6 7 6 6 7 6 5 4 4 4 4 5 7 6 5 6 6 6 7 6 5 5 6 6 7 7 6 6 7 7 7 7 7 7 7 7 6 6 6 5 5 6 7 6 5 6 7 8 9 8 8 7 7 6 6 6 6 7 7 7 8 7 7
5 5 4 3 3 4 3 2 2 1 2 2 2 2 1 2 2 3 3 4 3 4 4 4 4 4 4 4 4 3 4 3 4 4 4 4 4 4 4 4 4 6 5 6 7 8 8 8 8 8 7 7 7 8 7 6 6 7 8 7 8 7 6 6 6 8 6 6 6 7 9 9 7 8 8 8 7 6 6 6 6 7 8 6 7
5 4 4 5 5 4 2 1 1 0 1 2 1 1 1 0 0 1 0 1 1 2 2 3 3 3 3 3 4 3 3 3 3 4 4 4 5 6 6 6 7 7 5 7 8 6 5 6 7 9 9 9 8 7 7 6 7 7 8 6 7 8 9 9 6 7 8 6 6 7 9 9 7 8 8 8 8 8 6 7 7 7 8 8 7
7 7 6 5 4 4 3 2 1 2 2 1 1 1 1 2 1 1 1 3 2 3 2 2 2 3 3 4 4 4 3 4 4 4 4 4 5 5 6 6 8 9 8 7 7 8 8 8 8 8 8 8 8 9 8 7 8 8 9 8 7 8 9 9 9 10 9 8 8 8 8 8 7 8 8 8 8 8 7 8 9 7 8 9 7
5 4 3 4 3 2 2 2 3 2 2 3 3 3 3 3 3 3 3 4 3 3 3 2 3 3 3 3 4 4 5 5 5 5 5 6 6 6 6 6 7 6 8 8 8 8 8 8 9 9 9 9 10 9 9 8 9 9 9 10 9 9 9 9 9 10 9 9 10 11 9 7 7 8 9 8 8 8 8 8 9 8 8 9 8
5 4 4 3 3 3 4 4 4 4 4 4 4 4 4 4 3 4 4 3 3 3 3 3 2 3 4 5 6 5 5 5 5 5 5 5 5 5 5 5 6 7 6 7 7 5 7 7 8 10 11 11 11 10 11 11 9 8 9 10 10 9 9 10 10 10 10 10 10 11 12 9 7 9 9 8 8 9 9 9 10 9 9 9 7
5 5 4 5 5 4 4 4 4 4 4 4 4 3 3 4 4 4 5 6 5 4 4 4 4 3 4 4 4 4 4 4 4 4 5 5 6 5 6 6 5 8 8 6 7 7 7 9 9 8 9 9 10 10 11 11 11 11 10 10 10 10 10 11 11 11 11 10 11 12 11 11 9 10 10 9 8 10 9 10 11 10 9 8 9
6 6 5 3 2 4 5 5 5 5 1 3 3 2 1 2 4 4 3 2 3 3 3 4 3 4 3 3 3 4 4 4 5 6 6 6 7 7 7 8 8 8 9 10 10 11 10 9 10 10 9 10 10 10 10 11 11 10 11 12 12 11 11 10 11 12 12 11 12 12 12 11 12 11 12 11 10 10 9 11 11 11 10 10 10
4 4 4 5 6 5 5 5 1 2 2 2 2 3 4 4 4 4 5 5 5 5 4 4 3 3 3 5 5 5 5 5 5 5 6 6 6 8 8 8 8 9 9 9 9 10 10 9 11 11 11 11 11 12 11 10 9 9 10 11 12 13 14 14 13 12 12 12 13 13 12 12 13 12 12 11 10 10 9 10 10 9 9 10 10
5 6 6 6 6 6 4 0 0 2 4 4 4 4 4 4 3 3 4 5 4 3 4 4 4 4 5 6 6 5 4 5 6 6 6 7 8 8 9 9 9 10 10 11 11 11 12 12 11 10 12 11 11 11 10 9 11 13 12 12 12 12 13 14 14 14 14 13 13 13 13 12 13 16 19 18 16 13 10 11 11 9 9 10 10
7 7 8 7 6 3 3 4 5 5 4 3 3 3 4 5 5 4 5 4 3 3 3 3 3 3 4 4 4 3 4 4 5 6 6 7 7 8 8 8 9 9 10 10 11 11 11 12 13 13 12 11 11 10 12 23 21 15 14 13 13 13 13 13 14 14 15 15 15 14 13 19 21 21 20 21 21 22 21 17 13 11 10 11 10
8 7 7 4 4 5 6 6 5 5 5 4 4 3 3 3 3 3 4 3 4 5 5 6 7 6 7 8 8 9 9 9 9 9 8 9 10 9 8 8 8 7 9 9 9 11 10 10 11 12 12 11 10 12 24 25 26 27 19 15 14 14 14 15 14 14 15 15 14 15 14 15 16 17 17 21 20 23 23 24 24 23 18 14 11
7 5 5 7 8 8 8 8 7 5 5 5 5 4 4 5 4 5 4 4 5 5 6 6 6 7 7 8 8 8 9 10 10 10 11 11 11 11 11 11 11 11 10 10 10 9 10 10 11 12 12 11 11 17 24 24 26 27 24 18 15 14 13 13 13 14 13 13 15 14 14 13 13 14 14 14 17 22 23 23 24 24 24 25 22
6 8 8 9 10 9 8 7 5 5 5 3 3 5 6 4 5 3 3 5 5 5 5 6 6 6 6 6 7 7 7 8 8 9 9 10 11 11 11 11 13 12 11 12 11 12 11 10 11 11 14 12 12 19 22 24 24 24 25 22 14 14 14 14 14 15 15 14 14 14 13 11 10 19 16 14 14 14 19 23 24 25 25 25 24
7 8 8 7 5 5 5 5 5 5 5 4 5 6 4 3 2 2 3 4 4 5 4 5 5 5 5 6 7 6 7 7 7 8 8 9 10 10 10 9 10 10 10 11 10 13 11 11 11 12 12 14 14 17 23 24 23 24 24 22 15 15 16 14 14 14 14 15 14 12 12 13 11 12 12 13 14 14 14 14 14 14 14 17 21
8 6 5 7 8 6 7 7 6 5 4 4 6 4 2 3 3 3 3 5 4 4 4 4 3 4 6 5 6 6 7 7 8 8 8 8 9 10 10 9 9 9 10 10 11 11 11 11 10 12 11 15 12 21 23 24 24 25 25 22 15 15 15 16 17 17 16 14 16 15 15 15 14 12 12 16 16 16 15 15 15 15 14 14 14
8 9 8 9 9 9 9 7 5 5 5 5 4 2 3 3 2 4 4 3 3 3 4 2 3 4 4 6 5 6 6 7 8 8 8 10 9 9 10 10 9 9 8 7 9 8 11 11 10 10 12 12 13 22 24 24 25 24 26 15 12 12 13 14 14 14 15 14 13 16 15 16 15 16 21 32 28 21 19 19 19 18 16 15 15
8 9 10 6 5 7 8 7 6 5 5 4 3 3 3 2 3 3 2 3 2 2 2 2 3 4 5 4 5 6 7 7 8 9 9 9 10 10 9 7 10 10 9 9 8 8 9 10 12 10 13 12 12 17 23 24 24 25 20 12 13 13 14 14 14 13 13 14 14 15 15 19 20 18 23 28 27 25 17 17 16 16 16 15 15
5 3 5 6 6 7 6 7 7 6 5 3 3 3 3 2 1 1 1 2 1 2 1 2 4 4 5 5 6 5 7 8 8 9 10 10 9 9 9 7 9 11 11 9 8 10 8 8 11 12 10 13 13 16 24 24 25 25 21 15 12 12 14 14 15 15 14 14 16 25 23 18 18 18 25 31 32 27 21 20 21 22 21 18 16
9 12 10 8 7 8 8 7 6 6 4 3 3 3 2 0 1 1 1 1 2 1 2 3 4 5 5 5 5 5 6 8 9 9 9 10 10 10 9 8 8 8 10 8 9 11 9 8 8 12 18 18 14 16 22 23 25 24 19 13 13 12 15 14 14 14 14 13 15 16 23 21 19 21 29 28 29 24 18 16 16 16 17 19 18
4 4 7 9 9 8 6 6 5 5 3 3 2 1 0 1 1 1 1 1 2 1 2 3 5 5 5 5 5 6 7 8 10 10 9 9 9 9 9 9 9 7 9 9 9 9 12 10 9 11 11 11 13 12 15 25 24 25 24 16 12 11 13 14 13 14 13 12 14 16 18 24 28 30 30 31 29 30 22 18 17 17 17 20 14
9 9 8 8 6 6 7 6 5 4 3 2 2 1 0 1 1 1 2 2 1 2 3 4 5 5 5 6 5 6 9 9 8 10 9 9 8 9 10 9 10 9 8 9 10 10 10 11 9 10 10 11 10 13 14 24 25 25 26 22 12 11 11 11 12 14 12 13 11 11 11 19 25 26 26 28 28 27 25 18 17 18 19 21 22
4 7 7 7 6 7 7 5 3 4 3 1 2 1 1 2 1 3 3 2 2 3 4 4 5 5 6 6 7 7 7 8 8 8 9 10 8 8 9 9 9 9 10 10 9 10 9 10 9 9 10 11 12 19 15 20 25 26 25 27 16 12 14 14 13 11 11 11 12 13 11 18 28 29 29 30 31 29 31 21 19 26 30 32 25
9 6 4 8 7 6 6 5 4 3 2 1 2 1 1 1 3 4 2 2 3 3 4 5 6 6 7 7 7 8 9 7 8 8 9 11 9 8 8 8 10 10 9 10 10 10 10 11 10 9 9 10 11 12 21 19 23 26 27 26 27 22 26 18 14 13 13 12 11 11 13 24 28 29 28 29 28 31 26 21 31 32 32 34 28
3 5 7 6 7 6 5 4 4 3 2 1 2 1 1 2 5 3 2 2 3 4 4 5 6 7 7 7 7 8 8 7 8 9 8 10 10 9 8 8 8 8 9 9 9 9 10 10 11 10 9 9 10 10 15 23 22 27 26 27 27 27 27 17 15 12 11 12 12 12 15 27 29 30 30 30 29 28 21 29 30 32 30 27 17
11 9 6 5 8 7 5 4 3 2 1 1 1 1 1 3 3 1 3 3 4 4 5 6 7 7 7 7 7 7 8 7 8 7 9 9 10 8 9 7 8 8 8 9 10 9 10 10 10 11 11 10 10 11 11 16 24 25 27 27 27 28 26 27 18 13 14 14 20 30 32 30 29 29 30 29 24 23 27 27 28 28 27 15 13
7 6 7 5 5 5 5 4 2 2 1 1 1 1 2 4 2 3 3 4 4 5 5 7 7 6 7 7 8 8 7 8 8 6 7 8 9 9 8 9 8 8 8 9 10 10 10 10 11 10 11 11 11 10 11 10 12 16 18 25 29 29 28 28 26 21 27 31 31 30 32 32 28 24 18 13 11 12 23 28 28 26 14 12 12
10 9 8 6 5 6 5 4 3 2 3 1 2 2 3 3 4 4 4 4 4 5 6 7 7 7 6 6 7 7 7 6 6 6 6 8 8 7 7 9 9 9 9 9 11 10 11 10 11 11 11 11 11 9 9 9 10 10 11 13 15 16 23 25 18 14 17 17 20 21 18 23 23 29 29 25 23 22 18 15 11 10 10 10 11
7 8 7 6 5 5 4 4 3 4 3 2 2 3 3 4 4 5 4 4 4 5 6 7 7 7 6 6 7 8 9 8 7 6 8 8 8 7 7 8 10 10 10 11 10 11 12 13 11 11 11 10 10 10 10 11 12 11 11 10 10 10 10 10 11 12 14 15 14 16 20 15 13 13 14 12 11 10 10 10 10 10 11 12 14
9 6 6 6 5 4 4 3 3 2 2 2 3 3 3 4 5 4 4 4 5 5 6 6 6 6 7 6 6 7 7 8 8 7 7 8 9 9 9 9 10 10 10 10 8 9 10 11 10 11 10 8 8 9 9 16 18 23 20 16 12 10 9 8 12 20 15 11 11 10 10 11 10 11 10 10 10 10 10 10 12 11 10 11 10
5 6 5 4 5 4 4 3 2 2 2 3 4 4 4 4 4 4 4 4 5 5 5 6 6 6 6 6 6 7 6 7 7 8 9 9 12 18 14 11 11 18 25 26 22 14 13 11 11 9 9 9 11 12 24 30 29 29 30 30 28 27 25 20 22 29 19 12 10 11 10 10 10 9 10 10 10 9 9 9 9 12 13 10 10
6 5 4 4 3 3 3 2 2 2 2 3 4 4 4 5 4 4 4 4 4 4 5 6 5 5 7 7 7 7 7 7 7 8 7 9 10 12 19 21 20 21 23 24 24 26 26 24 16 12 12 24 26 28 28 27 29 28 29 30 30 29 29 28 25 16 10 8 9 8 8 8 8 9 10 11 11 10 10 9 11 10 10 12 12
Wind_Direction
4 15 19 18 19 19 21 25 24 33 29 25 30 28 28 25 28 25 11 20 27 27 30 32 29 23 44 50 54 22 28 39 43 30 41 31 29 22 24 32 46 77 113 149 167 166 178 157 153 163 163 174 178 190 189 194 194 190 183 175 178 189 226 148 164 135 136 265 346 315 301 289 276 281 257 245 234 227 221 216 220 207 217 203 205
21 28 21 23 22 20 24 28 28 34 22 26 28 25 26 26 30 23 19 23 26 19 24 43 27 54 87 53 72 32 25 29 30 23 25 37 34 32 35 42 47 43 32 29 41 69 114 141 176 182 172 192 204 204 191 192 174 173 151 175 202 186 211 179 175 129 200 209 232 299 308 290 272 282 265 253 238 239 228 224 220 217 220 216 210
31 33 28 27 23 25 32 34 37 37 33 30 24 29 25 24 21 24 24 25 21 20 24 25 13 26 53 41 62 81 61 62 66 40 43 50 40 33 30 27 29 41 40 42 51 40 44 52 326 12 236 202 175 187 179 194 193 188 180 187 199 236 218 177 175 191 187 134 118 28 285 298 303 263 255 248 239 235 231 229 222 222 223 213 206
37 28 27 23 26 31 33 35 32 36 34 31 26 27 29 26 22 22 23 24 24 18 23 18 36 50 50 54 40 64 52 7 34 33 24 34 33 26 34 26 29 30 27 32 28 32 37 40 53 54 341 348 265 231 204 215 191 193 198 214 169 195 217 228 195 203 152 136 254 210 227 162 300 263 241 246 201 219 218 229 222 225 225 225 211
34 31 27 25 29 29 30 31 33 38 34 32 29 29 32 29 27 29 28 23 23 21 22 24 31 30 22 33 36 29 22 21 19 5 3 3 18 21 2 30 39 38 28 25 29 24 28 29 34 55 108 271 275 267 243 233 220 216 205 199 193 201 223 220 221 204 215 219 163 99 310 266 231 253 349 278 221 214 232 228 225 226 221 216 214
39 35 30 28 32 30 31 31 35 34 32 26 27 33 34 32 30 30 31 28 22 21 22 34 42 46 42 41 34 32 34 22 14 351 344 357 341 314 357 22 26 29 34 33 35 30 22 29 31 24 9 356 242 257 284 289 254 240 218 210 217 227 221 204 234 234 222 229 224 214 146 178 243 274 65 280 320 239 265 233 230 232 227 222 229
27 35 30 35 27 37 34 33 31 36 26 20 30 34 36 36 35 37 36 31 24 25 26 34 41 42 53 60 61 54 50 22 1 8 12 359 11 12 356 360 9 12 10 24 21 26 26 27 36 33 14 357 334 317 289 261 250 235 231 221 229 226 215 230 220 229 231 254 248 247 239 180 151 36 256 331 317 319 256 244 250 240 236 238 237
30 35 34 32 38 42 37 27 35 36 25 29 34 33 36 35 38 38 39 37 31 28 34 33 44 41 44 48 49 46 48 34 18 12 17 15 24 14 14 10 10 13 10 5 7 7 8 10 26 30 18 2 360 306 290 296 300 292 247 244 252 251 227 234 238 218 212 234 217 242 251 230 174 160 164 224 249 290 303 316 261 249 244 241 237
30 37 31 25 33 38 29 31 25 38 34 35 33 31 34 37 43 45 43 38 32 34 38 37 43 46 49 44 46 36 37 35 31 37 31 17 27 12 15 12 16 20 22 19 16 9 2 355 356 2 7 4 8 329 317 323 310 302 294 268 243 242 226 235 243 240 222 238 232 247 242 250 249 234 194 157 238 280 273 247 272 309 239 249 245
28 36 31 29 28 37 24 23 38 34 32 34 37 37 37 39 42 46 40 37 32 36 39 41 40 43 48 45 48 34 26 25 37 36 33 27 29 16 10 14 8 15 13 20 18 11 7 1 355 354 355 359 10 335 327 329 317 306 286 274 269 261 251 239 239 251 243 245 232 241 231 250 264 276 251 244 253 208 257 267 234 244 258 248 234
28 30 29 29 27 36 17 45 38 36 35 38 37 35 35 39 41 48 39 38 35 37 39 41 42 42 47 46 47 43 34 36 35 32 27 32 29 15 12 3 12 13 11 13 16 10 8 11 8 356 349 352 349 359 342 326 314 313 305 307 290 269 265 258 254 256 259 256 245 234 240 220 233 229 238 229 232 252 270 264 262 228 236 267 259
37 55 41 23 35 31 30 42 39 36 39 36 32 32 36 37 41 51 40 35 35 34 41 41 41 42 46 45 48 45 44 44 44 39 31 37 32 24 9 13 11 11 16 13 10 5 8 8 10 12 10 3 355 344 342 340 329 327 316 306 295 289 290 284 272 264 256 255 251 242 243 237 241 240 234 226 225 244 236 262 261 281 280 236 268
58 63 56 40 45 35 35 35 41 38 37 33 31 32 34 38 39 51 41 33 35 35 43 41 43 41 41 42 44 45 47 48 46 45 34 38 31 30 22 16 6 13 8 11 8 4 7 13 11 13 8 4 358 360 347 344 343 337 327 316 301 290 280 276 271 260 254 253 253 248 245 242 244 240 235 239 243 243 238 264 256 205 259 277 277
53 59 62 64 53 49 47 47 49 48 42 39 36 36 33 38 35 47 41 33 34 40 40 42 40 39 37 42 42 41 45 48 46 48 41 43 38 37 31 19 12 10 1 4 352 358 13 15 15 15 13 8 5 359 357 348 346 342 333 328 318 302 299 280 271 271 271 264 266 268 258 245 246 236 235 230 239 242 251 245 268 261 223 263 275
91 77 70 68 62 59 64 60 55 52 48 45 43 40 42 42 39 41 40 28 35 38 39 42 39 36 37 41 45 43 46 46 46 46 44 41 36 39 30 17 20 359 3 345 353 4 4 7 13 17 11 9 7 3 357 351 349 347 342 328 322 316 312 301 285 279 278 275 269 255 260 257 249 244 237 238 225 232 241 243 236 270 274 251 263
70 79 68 62 67 59 60 60 59 53 51 49 45 41 46 43 45 47 44 32 34 37 40 44 40 40 40 42 38 39 39 40 39 34 35 38 34 34 24 18 5 354 351 356 356 6 8 5 3 5 3 8 8 5 1 357 350 349 339 339 328 323 324 316 301 297 285 278 274 276 273 263 250 246 241 240 236 232 231 241 228 244 261 278 265
88 86 93 78 64 64 68 71 62 59 53 53 53 47 56 49 46 44 36 36 34 34 40 40 41 44 38 40 36 36 36 39 37 32 27 21 24 20 19 3 357 3 354 353 354 359 5 7 1 356 356 355 357 2 358 356 353 347 340 333 325 322 324 308 306 300 288 286 284 274 268 273 268 251 246 248 247 247 238 233 221 233 237 256 271
131 128 123 113 96 78 71 65 68 69 65 51 48 63 83 91 80 62 50 41 28 34 34 36 34 36 32 33 36 37 36 33 28 25 16 18 14 7 350 356 357 341 345 338 346 353 353 360 358 351 349 348 348 345 352 347 352 343 334 324 309 315 313 306 297 291 288 285 280 283 274 272 269 264 247 241 245 243 244 236 233 234 224 244 256
142 138 110 103 79 64 72 67 50 47 47 48 39 36 40 35 35 48 40 39 31 34 32 40 45 34 33 29 30 25 27 25 17 11 14 16 9 2 359 345 335 337 336 340 343 344 348 347 352 342 341 341 339 342 343 341 342 333 329 321 318 329 324 311 300 300 292 294 290 288 285 275 270 267 260 248 241 244 245 241 244 231 237 236 250
163 155 151 137 119 105 74 68 52 29 24 14 21 23 27 13 22 18 17 17 14 15 14 13 3 16 360 3 6 5 13 11 9 10 3 4 349 351 346 346 339 333 332 336 340 343 343 344 341 336 331 331 329 330 335 334 334 327 323 321 312 320 313 305 304 301 292 290 289 288 284 282 281 278 276 265 252 237 237 244 239 236 242 234 239
171 166 159 145 131 123 110 100 54 1 9 11 34 36 345 9 11 20 22 348 358 347 5 358 2 356 5 348 339 342 342 358 352 3 345 339 325 314 318 303 302 324 322 330 336 336 337 338 334 331 328 322 322 320 324 324 323 317 317 316 315 315 307 297 295 296 292 285 280 279 281 279 279 278 275 275 271 251 241 240 240 241 245 235 227
171 166 154 151 161 175 210 285 192 97 56 83 15 77 65 3 240 300 341 305 302 310 331 330 344 334 336 329 324 318 312 343 348 337 335 327 329 327 325 333 331 319 332 325 327 326 324 325 325 322 323 321 317 312 312 311 307 307 304 305 308 310 310 306 301 293 289 285 276 278 280 279 273 269 274 275 269 271 256 248 242 232 242 243 218
173 172 175 179 187 198 201 189 156 170 195 200 237 191 227 241 273 268 197 268 219 247 263 271 296 318 310 314 317 320 332 327 338 316 324 319 318 320 322 327 323 321 325 323 319 322 322 321 317 310 308 310 310 311 311 309 304 301 298 296 295 297 296 298 300 294 295 292 286 271 268 272 276 273 268 263 267 266 262 256 254 234 242 243 230
180 182 183 190 200 187 173 202 215 219 216 223 226 238 247 254 246 249 239 250 262 247 247 259 280 299 305 328 319 329 336 327 330 320 327 322 326 320 320 320 308 311 309 309 315 314 314 313 309 308 307 306 307 305 305 301 299 300 299 296 295 293 290 286 284 286 287 288 286 288 278 260 257 263 267 267 261 257 259 259 257 250 240 247 235
182 179 199 191 195 192 205 206 202 210 213 219 226 234 238 247 245 246 250 261 277 302 307 290 308 312 331 354 338 341 338 328 317 313 307 307 309 308 308 309 308 305 301 302 302 299 297 298 299 301 304 302 301 302 301 299 296 294 293 294 294 293 292 290 287 283 281 280 280 276 279 279 265 261 262 257 255 256 256 256 257 255 249 246 241
188 199 183 194 199 195 189 195 203 206 207 216 228 265 334 340 337 358 337 340 346 338 340 347 2 355 338 354 338 331 320 309 305 307 311 313 314 319 321 320 318 314 315 310 304 309 305 304 300 294 288 289 292 295 295 295 298 300 298 293 290 289 290 289 288 286 282 277 274 274 272 271 268 263 263 258 251 251 251 253 254 256 253 251 249
189 191 200 189 178 198 206 209 210 215 223 22 29 24 15 3 1 11 12 9 12 32 40 48 24 28 351 326 312 316 310 314 322 321 322 326 329 330 332 326 325 323 319 320 319 315 314 308 304 302 297 294 293 287 288 291 295 296 296 296 296 294 288 287 285 283 281 278 273 271 270 267 263 258 260 259 256 254 249 249 248 252 249 251 252
175 182 175 185 203 212 216 221 260 20 77 108 74 73 63 68 59 41 34 34 24 33 31 29 15 356 347 336 335 327 332 334 333 333 332 336 340 342 338 331 330 324 318 314 311 308 305 306 304 307 306 306 303 299 296 294 290 289 291 290 291 293 294 292 287 281 279 277 273 270 268 266 262 261 259 259 255 256 254 254 250 246 246 247 249
181 197 195 198 207 213 219 177 117 97 85 99 92 67 76 82 84 58 44 32 12 34 24 16 6 1 350 335 329 329 335 346 338 342 348 348 347 338 332 329 325 320 318 316 316 316 314 312 309 306 305 302 300 300 302 305 305 302 296 291 288 285 284 285 285 287 284 278 274 272 269 266 261 259 259 259 257 252 253 259 254 245 241 243 245
192 200 203 206 205 177 143 129 117 121 124 113 107 95 74 65 46 35 40 18 31 26 26 5 1 344 326 316 316 322 332 331 341 346 346 338 333 329 325 321 316 313 314 314 313 314 314 313 313 312 311 310 306 304 306 307 306 303 302 301 298 295 291 286 284 282 280 279 279 276 270 266 266 264 263 262 261 260 255 250 254 251 244 244 240
202 204 210 193 163 147 138 139 148 150 159 138 110 113 109 87 68 54 39 15 22 15 13 7 355 353 347 350 352 350 350 354 351 345 343 342 337 333 327 320 317 316 314 312 315 314 311 315 317 315 312 310 308 309 311 310 309 307 306 306 302 297 293 290 286 282 281 281 277 276 276 273 268 266 266 265 263 261 260 258 256 253 248 243 245
202 190 158 148 154 161 160 160 161 152 144 145 131 117 89 57 41 33 22 13 19 16 6 358 352 349 352 354 352 352 354 348 348 343 340 337 333 331 330 327 325 325 322 320 317 314 317 320 316 314 308 306 306 310 311 310 307 306 305 303 300 296 293 289 286 282 280 280 281 280 277 276 273 271 270 268 264 264 264 262 262 261 259 252 244
170 163 171 169 169 171 164 156 145 128 109 95 109 90 69 57 43 17 20 20 14 10 0 356 350 347 349 356 357 354 345 342 340 338 332 331 331 327 327 328 323 322 322 320 321 321 319 322 319 314 312 310 311 314 313 309 306 304 303 300 294 290 287 285 284 284 283 282 282 280 279 273 269 270 270 269 269 268 265 265 265 264 261 259 256
172 174 175 176 162 162 154 138 128 120 118 114 87 82 82 76 60 19 30 19 10 2 2 343 342 344 1 358 353 347 338 333 331 329 327 324 324 318 317 316 312 315 317 314 316 317 317 319 319 316 310 311 310 315 312 311 311 310 308 303 297 294 288 284 283 280 279 279 279 280 280 279 276 274 271 272 274 272 272 269 265 262 261 260 258
173 178 177 173 171 159 134 128 133 135 130 106 78 77 76 61 33 25 28 21 10 355 344 326 347 1 2 348 346 337 329 324 324 321 319 314 311 310 309 310 309 310 314 312 314 315 313 313 314 313 308 306 308 312 313 313 314 310 305 302 292 288 286 285 284 283 284 285 285 283 283 282 283 279 277 281 280 277 275 271 267 263 259 259 256
185 174 184 176 179 167 154 139 130 113 95 84 85 75 65 42 28 25 18 10 356 345 322 343 7 354 348 339 334 325 319 317 315 313 310 308 307 303 306 309 304 301 297 298 298 298 303 307 308 306 302 299 304 312 311 310 309 307 305 302 295 287 281 278 278 281 282 282 281 279 278 276 273 271 273 274 271 269 267 265 265 264 262 257 254
189 184 182 173 146 134 130 124 115 104 102 96 88 71 63 41 22 12 11 339 342 326 321 10 345 336 329 325 321 314 311 309 308 308 305 304 306 307 304 304 300 299 300 302 297 298 303 301 302 299 299 296 299 308 308 307 306 305 305 297 293 290 288 284 280 277 275 274 274 276 278 282 284 285 286 287 290 291 291 285 278 271 266 262 258
158 100 113 120 119 112 120 124 119 102 95 95 86 76 66 44 357 338 331 307 312 289 358 347 323 312 311 309 308 306 303 304 302 299 299 300 300 297 295 302 298 303 300 298 299 299 295 294 296 296 294 296 298 304 306 306 304 302 301 298 295 290 288 289 292 291 292 291 287 286 284 282 280 279 281 280 280 282 281 280 280 279 278 274 271
162 157 148 143 136 131 128 118 115 105 92 89 87 82 75 29 259 273 287 287 277 292 338 315 302 300 297 300 298 298 296 296 295 292 294 297 298 295 295 295 289 289 290 298 298 296 294 291 286 288 296 298 295 299 303 304 301 301 301 293 292 287 288 289 291 290 288 290 292 294 294 293 290 286 284 282 280 277 273 275 277 276 273 268 262
129 113 135 133 133 124 115 113 111 112 108 98 95 96 98 237 261 263 285 265 265 309 303 296 290 292 293 291 295 293 291 289 290 291 290 287 290 292 291 293 290 287 292 295 293 290 293 294 291 288 290 289 291 292 297 300 301 300 300 298 290 287 287 289 289 294 298 292 292 289 288 288 287 286 285 284 283 280 278 278 281 280 278 275 282
156 147 140 133 134 132 134 132 125 127 120 113 112 111 224 242 254 269 259 261 284 299 290 287 291 289 287 288 289 285 286 283 280 286 288 287 287 287 293 291 291 291 286 289 291 289 290 290 290 288 286 287 285 291 293 298 300 300 299 299 289 284 285 286 285 284 277 282 282 287 293 297 298 296 295 294 291 288 284 273 261 258 261 271 277
115 138 137 128 119 117 117 116 124 122 121 128 124 133 232 232 252 256 256 275 292 283 287 289 287 288 287 286 282 279 275 279 283 284 288 286 283 283 286 289 287 289 290 289 289 292 290 290 287 285 284 284 287 290 291 293 296 297 298 297 295 285 286 284 283 276 283 289 290 291 288 290 291 289 288 287 287 287 288 288 284 280 274 268 262
153 148 151 139 134 138 142 144 136 132 135 148 122 164 220 238 249 259 267 282 277 287 287 285 286 287 285 283 281 280 282 280 282 282 284 288 290 291 287 284 287 289 287 290 293 294 295 292 290 286 281 281 282 281 287 288 291 295 298 298 296 296 294 294 290 287 284 281 280 279 281 286 287 287 287 285 284 282 281 278 280 282 282 282 282
135 140 148 136 132 139 143 152 146 140 144 151 143 168 217 247 261 276 284 282 290 286 286 286 285 284 284 283 280 279 276 278 279 283 282 284 290 290 289 288 287 288 294 296 295 293 291 288 291 289 284 281 277 277 280 285 290 291 296 298 298 298 298 293 288 286 288 285 287 281 276 280 282 283 285 286 287 288 285 281 277 276 281 286 287
159 155 144 138 148 157 152 163 159 150 176 163 172 158 239 257 266 276 279 282 281 285 288 284 282 282 280 279 280 277 279 275 274 275 284 288 288 292 294 289 288 291 291 293 292 290 286 286 286 285 285 282 276 274 273 277 283 288 292 293 294 294 294 295 293 285 278 279 283 287 291 294 296 296 295 296 297 295 291 288 286 283 281 277 279
134 137 146 139 131 135 145 167 208 173 189 181 199 181 247 255 278 286 283 279 281 286 285 281 281 280 281 285 288 284 276 272 273 271 270 277 283 291 290 292 292 288 290 288 287 286 281 281 280 278 280 279 277 275 275 271 268 271 274 279 283 285 286 288 287 287 289 290 292 292 292 292 292 290 287 278 265 265 271 278 284 285 283 281 281
162 159 141 138 141 148 165 172 198 210 180 215 227 247 234 266 278 277 278 279 282 278 279 282 284 284 286 285 283 289 290 286 282 280 275 276 280 276 280 286 287 290 286 281 280 279 280 277 278 282 280 281 280 279 278 278 273 270 265 265 270 270 272 275 276 273 273 276 275 276 276 279 280 281 282 284 285 287 288 286 279 272 268 268 267
147 146 146 140 146 158 170 176 195 199 181 213 241 247 256 262 267 270 269 277 277 274 277 283 288 288 288 285 284 287 291 297 292 290 292 290 280 274 275 280 287 286 284 279 275 276 278 282 277 278 279 280 283 286 289 291 287 279 272 266 253 250 251 241 258 263 257 257 260 266 270 271 273 274 277 267 256 256 262 272 271 270 266 264 266
147 154 151 158 157 162 175 173 197 186 190 238 254 258 260 262 267 270 269 273 273 275 279 285 286 289 286 287 287 292 295 296 297 289 275 275 285 287 279 269 261 254 255 256 234 240 249 268 274 286 291 282 286 290 289 297 299 305 305 303 296 286 269 254 247 261 262 253 246 254 250 260 252 258 260 265 269 269 265 262 262 262 263 266 266
147 139 143 142 155 159 166 174 207 190 211 233 258 266 264 261 264 266 262 263 275 285 288 288 287 287 291 295 297 297 296 295 293 295 297 290 282 291 292 294 293 291 290 289 290 292 293 293 292 286 290 295 297 296 304 308 307 306 307 308 307 308 308 306 303 305 310 304 296 288 286 284 284 285 281 277 275 268 265 263 258 267 270 266 263
149 134 143 149 165 157 152 176 209 197 219 242 261 264 271 270 258 260 252 258 272 285 286 289 293 292 297 303 301 300 299 296 294 297 298 300 306 302 302 300 298 297 295 294 296 296 299 302 304 305 304 304 305 307 308 308 308 310 313 313 311 311 311 312 314 316 317 308 307 306 301 297 292 292 289 286 285 282 277 269 269 265 264 267 266